Tracking 20942 objects as of 4-Jul-2020
HD Live streaming from Space Station
objects crossing your sky now

EUTELSAT 1-F2 (ECS 2)

Track EUTELSAT 1-F2 (ECS 2) now!
EUTELSAT 1-F2 (ECS 2) is classified as:


NORAD ID: 15158
Int'l Code: 1984-081A
Perigee: 36,176.1 km
Apogee: 36,248.1 km
Inclination: 14.8 °
Period: 1,457.5 minutes
Semi major axis: 42583 km
RCS: 5.0119 m2 (large)
Launch date: August 4, 1984
Source: European Telecommunications Satellite Organization (EUTE)
Launch site: FRENCH GUIANA (FRGUI)
aabbcc
Your satellite tracking list
Your tracking list is empty




NASA's NSSDC Master Catalog

Two Line Element Set (TLE):
1 15158U 84081A   20185.82896638 -.00000247  00000-0  00000+0 0  9990
2 15158  14.8490 349.7005 0008452 140.3056 219.7866  0.98797702 95826
Source of the keplerian elements: AFSPC